Location: Muenchen
(48.1800°N, 11.5800°E)
Time: 17:13:31
(UTC+01:00)

ISS - Visible Passes

Search period start: 28 January 2015 00:00
Search period end: 07 February 2015 00:00
Orbit: 402 x 410 km, 51.6° (Epoch: 28 January)

Date Brightness Start Highest point End Pass type
(mag) Time Alt. Az. Time Alt. Az. Time Alt. Az.
05 Feb -1.4 19:07:43 10° SSW 19:09:19 19° SSE 19:09:19 19° SSE visible
06 Feb -1.1 18:16:52 10° SSE 18:18:31 13° SE 18:19:49 11° ESE visible
06 Feb -0.9 19:51:17 10° WSW 19:52:31 21° SW 19:52:31 21° SW visible
